EN

Hourly Weather Abegondo

Today, 25 November, Wednesday

Time Temperature Precipitation Wind Pressure Humidity
00:00 +11°C° 1.8 mm 1 mps 742 mmHg 98%
01:00 +11°C° 1.8 mm 1 mps 742 mmHg 97%
02:00 +11°C° 1.8 mm 1 mps 742 mmHg 97%
03:00 +11°C° 0.1 mm 1 mps 742 mmHg 97%
04:00 +10°C° 0.1 mm 1 mps 742 mmHg 97%
05:00 +10°C° 0 mm 1 mps 741 mmHg 97%
06:00 +10°C° 0.1 mm 1 mps 741 mmHg 96%
07:00 +10°C° 0.1 mm 1 mps 741 mmHg 96%
08:00 +10°C° 0.1 mm 1 mps 741 mmHg 95%
09:00 +10°C° 0.2 mm 2 mps 741 mmHg 93%
10:00 +10°C° 0.2 mm 2 mps 741 mmHg 91%
11:00 +11°C° 0.2 mm 3 mps 741 mmHg 89%
12:00 +11°C° 0.4 mm 3 mps 741 mmHg 90%
13:00 +10°C° 0.4 mm 3 mps 741 mmHg 91%
14:00 +10°C° 0.4 mm 4 mps 740 mmHg 92%
15:00 +10°C° 0.6 mm 3 mps 740 mmHg 93%
16:00 +10°C° 0.6 mm 3 mps 740 mmHg 94%
17:00 +9°C° 0.6 mm 2 mps 739 mmHg 95%
18:00 +9°C° 0.1 mm 2 mps 739 mmHg 95%
19:00 +8°C° 0.1 mm 2 mps 739 mmHg 95%
20:00 +8°C° 0.1 mm 2 mps 739 mmHg 95%
21:00 +9°C° 0 mm 1 mps 739 mmHg 95%
22:00 +9°C° 0 mm 1 mps 739 mmHg 96%
23:00 +9°C° 0 mm 1 mps 739 mmHg 96%

Tomorrow, 26 November, Thursday

Time Temperature Precipitation Wind Pressure Humidity
00:00 +9°C° 0 mm 1 mps 739 mmHg 95%
01:00 +9°C° 0 mm 1 mps 738 mmHg 94%
02:00 +9°C° 0 mm 1 mps 738 mmHg 93%
03:00 +9°C° 0 mm 1 mps 738 mmHg 93%
04:00 +9°C° 0 mm 1 mps 738 mmHg 93%
05:00 +9°C° 0 mm 1 mps 739 mmHg 93%
06:00 +10°C° 0 mm 1 mps 739 mmHg 92%
07:00 +10°C° 0 mm 1 mps 739 mmHg 91%
08:00 +11°C° 0 mm 1 mps 740 mmHg 89%
09:00 +12°C° 0 mm 1 mps 740 mmHg 83%
10:00 +14°C° 0 mm 1 mps 740 mmHg 77%
11:00 +16°C° 0 mm 1 mps 740 mmHg 71%
12:00 +16°C° 0 mm 1 mps 740 mmHg 70%
13:00 +16°C° 0 mm 1 mps 740 mmHg 69%
14:00 +18°C° 0 mm 1 mps 740 mmHg 68%
15:00 +15°C° 0 mm 1 mps 740 mmHg 76%
16:00 +13°C° 0 mm 1 mps 740 mmHg 83%
17:00 +12°C° 0 mm 1 mps 740 mmHg 91%
18:00 +12°C° 0 mm 1 mps 741 mmHg 90%
19:00 +11°C° 0 mm 1 mps 741 mmHg 90%
20:00 +11°C° 0 mm 1 mps 741 mmHg 89%
21:00 +11°C° 0 mm 1 mps 742 mmHg 90%
22:00 +11°C° 0 mm 1 mps 742 mmHg 90%
23:00 +10°C° 0 mm 1 mps 742 mmHg 90%

Day after tomorrow, 27 November, Friday

Time Temperature Precipitation Wind Pressure Humidity
00:00 +10°C° 0 mm 1 mps 741 mmHg 90%
01:00 +10°C° 0 mm 1 mps 741 mmHg 91%
02:00 +10°C° 0 mm 1 mps 741 mmHg 92%
03:00 +9°C° 0 mm 1 mps 741 mmHg 91%
04:00 +9°C° 0 mm 1 mps 741 mmHg 91%
05:00 +9°C° 0 mm 1 mps 741 mmHg 91%
06:00 +10°C° 0 mm 1 mps 741 mmHg 88%
07:00 +10°C° 0 mm 1 mps 741 mmHg 85%
08:00 +11°C° 0 mm 1 mps 741 mmHg 82%
09:00 +13°C° 0 mm 1 mps 741 mmHg 75%
10:00 +15°C° 0 mm 1 mps 741 mmHg 69%
11:00 +16°C° 0 mm 0 mps 741 mmHg 62%
12:00 +18°C° 0 mm 1 mps 740 mmHg 65%
13:00 +18°C° 0 mm 1 mps 740 mmHg 67%
14:00 +18°C° 0 mm 1 mps 740 mmHg 69%
15:00 +15°C° 0 mm 1 mps 740 mmHg 79%
16:00 +13°C° 0 mm 1 mps 740 mmHg 88%
17:00 +11°C° 0 mm 1 mps 740 mmHg 97%
18:00 +11°C° 0 mm 1 mps 740 mmHg 97%
19:00 +10°C° 0 mm 0 mps 740 mmHg 96%
20:00 +9°C° 0 mm 0 mps 740 mmHg 96%
21:00 +10°C° 0 mm 1 mps 739 mmHg 96%
22:00 +10°C° 0 mm 1 mps 739 mmHg 95%
23:00 +9°C° 0 mm 1 mps 739 mmHg 95%

28 November, Saturday

Time Temperature Precipitation Wind Pressure Humidity
00:00 +9°C° 0 mm 1 mps 739 mmHg 95%
01:00 +9°C° 0 mm 1 mps 738 mmHg 94%
02:00 +9°C° 0 mm 1 mps 738 mmHg 94%
03:00 +9°C° 0 mm 1 mps 738 mmHg 94%
04:00 +9°C° 0 mm 1 mps 738 mmHg 94%
05:00 +8°C° 0 mm 1 mps 738 mmHg 94%
06:00 +9°C° 0 mm 1 mps 738 mmHg 91%
07:00 +9°C° 0 mm 1 mps 738 mmHg 89%
08:00 +10°C° 0 mm 1 mps 738 mmHg 86%
09:00 +12°C° 0 mm 1 mps 738 mmHg 78%
10:00 +14°C° 0 mm 1 mps 738 mmHg 70%
11:00 +16°C° 0 mm 1 mps 738 mmHg 61%
12:00 +16°C° 0 mm 1 mps 737 mmHg 62%
13:00 +16°C° 0 mm 1 mps 737 mmHg 63%
14:00 +16°C° 0 mm 1 mps 736 mmHg 64%
15:00 +15°C° 0 mm 1 mps 737 mmHg 71%
16:00 +13°C° 0 mm 1 mps 737 mmHg 79%
17:00 +11°C° 0 mm 1 mps 737 mmHg 86%
18:00 +11°C° 0 mm 1 mps 737 mmHg 86%
19:00 +11°C° 0 mm 1 mps 738 mmHg 85%
20:00 +10°C° 0 mm 1 mps 738 mmHg 85%
21:00 +10°C° 0 mm 1 mps 738 mmHg 86%
22:00 +10°C° 0 mm 1 mps 738 mmHg 87%
23:00 +10°C° 0 mm 1 mps 738 mmHg 87%

29 November, Sunday

Time Temperature Precipitation Wind Pressure Humidity
00:00 +10°C° 0 mm 1 mps 738 mmHg 87%
01:00 +9°C° 0 mm 1 mps 738 mmHg 87%
02:00 +9°C° 0 mm 1 mps 738 mmHg 87%
03:00 +9°C° 0 mm 1 mps 739 mmHg 86%
04:00 +9°C° 0 mm 1 mps 739 mmHg 85%
05:00 +9°C° 0 mm 1 mps 739 mmHg 85%
06:00 +10°C° 0 mm 1 mps 740 mmHg 83%
07:00 +10°C° 0 mm 1 mps 740 mmHg 81%
08:00 +10°C° 0 mm 1 mps 741 mmHg 79%
09:00 +12°C° 0 mm 1 mps 741 mmHg 72%
10:00 +14°C° 0 mm 1 mps 741 mmHg 65%
11:00 +16°C° 0 mm 1 mps 741 mmHg 58%
12:00 +16°C° 0 mm 1 mps 741 mmHg 61%
13:00 +16°C° 0 mm 1 mps 741 mmHg 64%
14:00 +16°C° 0 mm 1 mps 741 mmHg 67%
15:00 +14°C° 0 mm 1 mps 742 mmHg 75%
16:00 +12°C° 0 mm 1 mps 742 mmHg 82%
17:00 +10°C° 0 mm 2 mps 742 mmHg 90%
18:00 +9°C° 0 mm 2 mps 743 mmHg 92%
19:00 +9°C° 0 mm 2 mps 743 mmHg 94%
20:00 +9°C° 0 mm 1 mps 743 mmHg 95%
21:00 +10°C° 0 mm 1 mps 744 mmHg 96%
22:00 +10°C° 0 mm 1 mps 744 mmHg 96%
23:00 +10°C° 0 mm 1 mps 744 mmHg 96%

30 November, Monday

Time Temperature Precipitation Wind Pressure Humidity
00:00 +10°C° 0 mm 1 mps 744 mmHg 96%
01:00 +10°C° 0 mm 1 mps 744 mmHg 97%
02:00 +9°C° 0 mm 1 mps 744 mmHg 97%
03:00 +9°C° 0 mm 1 mps 745 mmHg 97%
04:00 +9°C° 0 mm 1 mps 745 mmHg 97%
05:00 +9°C° 0 mm 1 mps 745 mmHg 97%
06:00 +9°C° 0 mm 1 mps 745 mmHg 95%
07:00 +10°C° 0 mm 1 mps 745 mmHg 94%
08:00 +9°C° 0 mm 2 mps 745 mmHg 92%
09:00 +12°C° 0 mm 2 mps 745 mmHg 86%
10:00 +14°C° 0 mm 2 mps 746 mmHg 80%
11:00 +14°C° 0 mm 3 mps 746 mmHg 74%
12:00 +14°C° 0 mm 3 mps 746 mmHg 73%
13:00 +14°C° 0 mm 3 mps 745 mmHg 73%
14:00 +16°C° 0 mm 3 mps 745 mmHg 72%
15:00 +13°C° 0 mm 3 mps 745 mmHg 79%
16:00 +11°C° 0 mm 3 mps 745 mmHg 86%
17:00 +9°C° 0 mm 2 mps 745 mmHg 93%
18:00 +9°C° 0 mm 2 mps 746 mmHg 94%
19:00 +8°C° 0 mm 2 mps 746 mmHg 94%
20:00 +8°C° 0 mm 2 mps 746 mmHg 95%
21:00 +8°C° 0 mm 2 mps 746 mmHg 95%
22:00 +7°C° 0 mm 2 mps 746 mmHg 95%
23:00 +7°C° 0 mm 2 mps 746 mmHg 95%
Show more